SWR2120 LSZH-LEMG

Flight info

Callsign SWR2120
Flight time 2h 15m
Altitude 33000
Route VEBIT T50 ROTOS Z669 ULMES DCT VADAR DCT NINTU/N0434F350 DCT MEBAK DCT REPSI DCT LERGA DCT MINSO DCT NARAK/N0437F370 DCT AGN DCT MAQAB DCT TIVLI DCT ELSAP DCT ZAR DCT EXEMU DCT PISUS DCT EDIMU DCT ADUXO DCT NUSGO DCT OBIBO DCT NASOS DCT ANZAN DCT BLN
Aircraft A320/M-SDE3FGHIRWY/LB1

Departure

Time 2026-04-26 19:01
Airport Zürich Airport (LSZH)

Arrival

Time 2026-04-26 21:16
Airport Málaga-Costa del Sol Airport (LEMG)
Time Latitude Longitude Altitude Speed Heading
2026-04-26 18:29 47.45434 8.55691 1413 ft 0 kts 186°
2026-04-26 18:51 47.45442 8.55693 1407 ft 4 kts 184°
2026-04-26 18:52 47.45469 8.55693 1407 ft 4 kts 172°
2026-04-26 18:52 47.45487 8.55688 1409 ft 4 kts 161°
2026-04-26 18:52 47.45514 8.55660 1410 ft 4 kts 107°
2026-04-26 18:52 47.45515 8.55651 1409 ft 0 kts 96°
2026-04-26 18:54 47.45515 8.55657 1414 ft 4 kts 96°
2026-04-26 18:55 47.45506 8.55775 1411 ft 16 kts 96°
2026-04-26 18:55 47.45494 8.55941 1407 ft 17 kts 96°
2026-04-26 18:55 47.45482 8.56118 1407 ft 18 kts 95°
2026-04-26 18:55 47.45527 8.56247 1410 ft 15 kts
2026-04-26 18:56 47.45599 8.56260 1415 ft 2 kts
2026-04-26 18:56 47.45605 8.56261 1412 ft 0 kts
2026-04-26 18:58 47.45625 8.56265 1415 ft 12 kts
2026-04-26 18:58 47.45738 8.56282 1420 ft 17 kts
2026-04-26 18:58 47.45853 8.56298 1414 ft 17 kts
2026-04-26 18:59 47.45984 8.56318 1412 ft 20 kts
2026-04-26 18:59 47.46110 8.56396 1411 ft 16 kts 48°
2026-04-26 18:59 47.46148 8.56425 1412 ft 7 kts 319°
2026-04-26 18:59 47.46161 8.56405 1411 ft 0 kts 316°
2026-04-26 19:00 47.46240 8.56296 1408 ft 49 kts 316°
2026-04-26 19:00 47.46674 8.55706 1402 ft 117 kts 317°
2026-04-26 19:00 47.47400 8.54713 1403 ft 165 kts 316°
2026-04-26 19:01 47.48282 8.53503 1828 ft 173 kts 318°
2026-04-26 19:01 47.49211 8.52325 2453 ft 178 kts 322°
2026-04-26 19:01 47.50270 8.51276 2808 ft 193 kts 333°
2026-04-26 19:01 47.51493 8.50277 3101 ft 210 kts 334°
2026-04-26 19:02 47.52691 8.48847 3534 ft 232 kts 310°
2026-04-26 19:02 47.53425 8.46682 4312 ft 245 kts 284°
2026-04-26 19:02 47.53444 8.44198 5339 ft 242 kts 257°
2026-04-26 19:02 47.53074 8.42654 5988 ft 241 kts 245°
2026-04-26 19:03 47.51915 8.39866 6986 ft 242 kts 224°
2026-04-26 19:03 47.50518 8.38444 7498 ft 254 kts 201°
2026-04-26 19:03 47.48742 8.37745 7774 ft 276 kts 192°
2026-04-26 19:03 47.46821 8.37143 8355 ft 286 kts 193°
2026-04-26 19:04 47.44870 8.36526 9148 ft 287 kts 193°
2026-04-26 19:04 47.42915 8.35901 9966 ft 289 kts 194°
2026-04-26 19:04 47.40978 8.35023 10543 ft 297 kts 206°
2026-04-26 19:04 47.39167 8.33359 10734 ft 318 kts 222°
2026-04-26 19:05 47.36579 8.27863 11723 ft 334 kts 244°
2026-04-26 19:05 47.35505 8.24816 12430 ft 337 kts 243°
2026-04-26 19:05 47.34410 8.21743 13123 ft 340 kts 243°
2026-04-26 19:06 47.33300 8.18639 13821 ft 343 kts 244°
2026-04-26 19:06 47.32184 8.15518 14440 ft 346 kts 244°
2026-04-26 19:06 47.31056 8.12367 15040 ft 349 kts 244°
2026-04-26 19:06 47.29921 8.09185 15628 ft 352 kts 244°
2026-04-26 19:07 47.28776 8.05973 16199 ft 356 kts 244°
2026-04-26 19:07 47.27621 8.02731 16769 ft 359 kts 244°
2026-04-26 19:07 47.26524 7.99417 17329 ft 361 kts 250°
2026-04-26 19:07 47.25568 7.95981 17892 ft 365 kts 250°
2026-04-26 19:08 47.24602 7.92510 18451 ft 368 kts 250°
2026-04-26 19:08 47.23624 7.89010 18938 ft 371 kts 250°
2026-04-26 19:08 47.22637 7.85489 19440 ft 374 kts 250°
2026-04-26 19:08 47.21642 7.81944 19948 ft 377 kts 250°
2026-04-26 19:09 47.20639 7.78373 20458 ft 379 kts 250°
2026-04-26 19:09 47.19626 7.74777 20957 ft 382 kts 249°
2026-04-26 19:09 47.18347 7.71370 21442 ft 389 kts 238°
2026-04-26 19:09 47.16687 7.68203 21935 ft 393 kts 234°
2026-04-26 19:10 47.14973 7.65048 22434 ft 396 kts 234°
2026-04-26 19:10 47.13250 7.61869 22908 ft 399 kts 234°
2026-04-26 19:10 47.11514 7.58664 23364 ft 402 kts 234°
2026-04-26 19:10 47.09767 7.55435 23815 ft 405 kts 234°
2026-04-26 19:11 47.08009 7.52180 24178 ft 408 kts 234°
2026-04-26 19:11 47.06240 7.48913 24548 ft 410 kts 234°
2026-04-26 19:11 47.04460 7.45630 24914 ft 412 kts 234°
2026-04-26 19:11 47.02668 7.42331 25285 ft 414 kts 234°
2026-04-26 19:12 47.00867 7.39026 25632 ft 416 kts 234°
2026-04-26 19:12 46.99051 7.35708 25988 ft 418 kts 234°
2026-04-26 19:12 46.97222 7.32383 26328 ft 420 kts 234°
2026-04-26 19:12 46.95381 7.29041 26662 ft 423 kts 234°
2026-04-26 19:13 46.93533 7.25679 26968 ft 425 kts 234°
2026-04-26 19:13 46.91679 7.22299 27281 ft 428 kts 234°
2026-04-26 19:13 46.89814 7.18895 27605 ft 430 kts 234°
2026-04-26 19:13 46.87939 7.15471 27929 ft 432 kts 234°
2026-04-26 19:14 46.86055 7.12037 28238 ft 434 kts 234°
2026-04-26 19:14 46.84160 7.08594 28543 ft 436 kts 234°
2026-04-26 19:14 46.82250 7.05131 28841 ft 438 kts 234°
2026-04-26 19:14 46.80979 7.02831 29051 ft 440 kts 234°
2026-04-26 19:15 46.78400 6.98174 29418 ft 443 kts 234°
2026-04-26 19:15 46.76487 6.94718 29681 ft 445 kts 234°
2026-04-26 19:15 46.74544 6.91206 29962 ft 446 kts 233°
2026-04-26 19:15 46.72586 6.87675 30193 ft 449 kts 233°
2026-04-26 19:16 46.70617 6.84131 30413 ft 451 kts 233°
2026-04-26 19:16 46.68637 6.80578 30621 ft 453 kts 233°
2026-04-26 19:16 46.66650 6.77013 30822 ft 454 kts 234°
2026-04-26 19:16 46.64844 6.73255 31028 ft 453 kts 242°
2026-04-26 19:17 46.63219 6.69335 31312 ft 452 kts 242°
2026-04-26 19:17 46.61591 6.65421 31603 ft 451 kts 242°
2026-04-26 19:17 46.59966 6.61528 31889 ft 451 kts 242°
2026-04-26 19:17 46.58339 6.57635 32176 ft 450 kts 242°
2026-04-26 19:18 46.56709 6.53740 32461 ft 450 kts 242°
2026-04-26 19:18 46.55083 6.49864 32736 ft 450 kts 241°
2026-04-26 19:18 46.53453 6.45986 32996 ft 449 kts 242°
2026-04-26 19:18 46.51822 6.42109 33143 ft 449 kts 242°
2026-04-26 19:19 46.50206 6.38277 33164 ft 442 kts 242°
2026-04-26 19:19 46.47014 6.30717 33164 ft 438 kts 242°
2026-04-26 19:20 46.43834 6.23205 33168 ft 437 kts 242°
2026-04-26 19:20 46.40646 6.15688 33166 ft 438 kts 242°
2026-04-26 19:21 46.37455 6.08172 33146 ft 439 kts 241°
2026-04-26 19:21 46.34252 6.00647 33130 ft 439 kts 241°
2026-04-26 19:22 46.31042 5.93131 33132 ft 439 kts 241°
2026-04-26 19:22 46.27817 5.85623 33142 ft 439 kts 241°
2026-04-26 19:23 46.24593 5.78121 33145 ft 439 kts 241°
2026-04-26 19:23 46.21365 5.70625 33142 ft 440 kts 241°
2026-04-26 19:24 46.18129 5.63137 33148 ft 440 kts 241°
2026-04-26 19:24 46.13219 5.51947 33144 ft 441 kts 239°
2026-04-26 19:25 46.10329 5.45889 33143 ft 441 kts 238°
2026-04-26 19:25 46.06176 5.37450 33147 ft 442 kts 238°
2026-04-26 19:26 46.02656 5.30206 33143 ft 442 kts 238°
2026-04-26 19:26 45.99157 5.22937 33140 ft 442 kts 238°
2026-04-26 19:27 45.95649 5.15676 33140 ft 442 kts 238°
2026-04-26 19:27 45.92150 5.08468 33134 ft 443 kts 238°
2026-04-26 19:28 45.88599 5.01175 33140 ft 443 kts 238°
2026-04-26 19:28 45.85091 4.93985 33134 ft 443 kts 238°
2026-04-26 19:29 45.81552 4.86749 33132 ft 443 kts 238°
2026-04-26 19:29 45.78006 4.79513 33134 ft 444 kts 238°
2026-04-26 19:30 45.74447 4.72270 33139 ft 444 kts 238°
2026-04-26 19:30 45.71461 4.66221 33161 ft 444 kts 238°
2026-04-26 19:31 45.67319 4.57842 33158 ft 444 kts 238°
2026-04-26 19:31 45.63750 4.50640 33160 ft 444 kts 237°
2026-04-26 19:32 45.60170 4.43432 33160 ft 445 kts 237°
2026-04-26 19:32 45.56590 4.36234 33169 ft 445 kts 237°
2026-04-26 19:33 45.53003 4.29045 33166 ft 445 kts 237°
2026-04-26 19:33 45.49419 4.21868 33169 ft 444 kts 237°
2026-04-26 19:34 45.45821 4.14699 33170 ft 445 kts 237°
2026-04-26 19:34 45.42222 4.07546 33174 ft 444 kts 237°
2026-04-26 19:35 45.38615 4.00397 33178 ft 445 kts 237°
2026-04-26 19:35 45.35002 3.93262 33191 ft 445 kts 237°
2026-04-26 19:36 45.32605 3.88546 33195 ft 445 kts 237°
2026-04-26 19:36 45.27788 3.79064 33194 ft 445 kts 237°
2026-04-26 19:37 45.24173 3.71943 33176 ft 445 kts 238°
2026-04-26 19:37 45.20629 3.64757 33178 ft 444 kts 238°
2026-04-26 19:38 45.17118 3.57553 33179 ft 444 kts 238°
2026-04-26 19:38 45.13585 3.50364 33182 ft 444 kts 238°
2026-04-26 19:39 45.10028 3.43195 33176 ft 445 kts 238°
2026-04-26 19:39 45.06460 3.36030 33177 ft 445 kts 238°
2026-04-26 19:40 45.02890 3.28868 33178 ft 446 kts 238°
2026-04-26 19:40 44.99317 3.21715 33179 ft 445 kts 238°
2026-04-26 19:41 44.96344 3.15774 33184 ft 446 kts 238°
2026-04-26 19:41 44.93368 3.09838 33184 ft 446 kts 237°
2026-04-26 19:42 44.88588 3.00345 33180 ft 446 kts 237°
2026-04-26 19:42 44.85578 2.94380 33187 ft 445 kts 237°
2026-04-26 19:43 44.82079 2.87193 33192 ft 444 kts 240°
2026-04-26 19:43 44.78759 2.79872 33189 ft 443 kts 240°
2026-04-26 19:44 44.75456 2.72548 33188 ft 443 kts 240°
2026-04-26 19:44 44.72100 2.65267 33179 ft 443 kts 239°
2026-04-26 19:45 44.68748 2.58075 33193 ft 442 kts 240°
2026-04-26 19:45 44.65387 2.50854 33177 ft 441 kts 240°
2026-04-26 19:46 44.62026 2.43643 33182 ft 441 kts 239°
2026-04-26 19:46 44.58663 2.36449 33166 ft 441 kts 239°
2026-04-26 19:47 44.55860 2.30476 33167 ft 441 kts 239°
2026-04-26 19:47 44.51918 2.22096 33167 ft 440 kts 239°
2026-04-26 19:48 44.48544 2.14942 33171 ft 440 kts 239°
2026-04-26 19:48 44.45178 2.07810 33168 ft 439 kts 239°
2026-04-26 19:49 44.41813 2.00681 33163 ft 439 kts 239°
2026-04-26 19:49 44.38442 1.93569 33148 ft 439 kts 239°
2026-04-26 19:50 44.35058 1.86461 33144 ft 439 kts 238°
2026-04-26 19:50 44.31673 1.79371 33149 ft 439 kts 238°
2026-04-26 19:51 44.28311 1.72330 33153 ft 438 kts 239°
2026-04-26 19:51 44.25013 1.65174 33150 ft 438 kts 240°
2026-04-26 19:52 44.21765 1.58008 33148 ft 437 kts 240°
2026-04-26 19:52 44.18490 1.50848 33134 ft 438 kts 239°
2026-04-26 19:53 44.15193 1.43729 33149 ft 437 kts 239°
2026-04-26 19:53 44.11887 1.36624 33152 ft 437 kts 239°
2026-04-26 19:54 44.08584 1.29533 33152 ft 436 kts 239°
2026-04-26 19:54 44.05288 1.22445 33153 ft 436 kts 239°
2026-04-26 19:55 44.01991 1.15360 33153 ft 437 kts 239°
2026-04-26 19:55 43.98686 1.08294 33151 ft 436 kts 239°
2026-04-26 19:56 43.95400 1.01285 33148 ft 435 kts 238°
2026-04-26 19:56 43.92088 0.94259 33147 ft 435 kts 238°
2026-04-26 19:57 43.88631 0.87377 33153 ft 436 kts 230°
2026-04-26 19:57 43.84203 0.81597 33149 ft 438 kts 223°
2026-04-26 19:58 43.79661 0.75975 33145 ft 438 kts 223°
2026-04-26 19:58 43.75121 0.70369 33159 ft 437 kts 223°
2026-04-26 19:59 43.70578 0.64782 33166 ft 437 kts 223°
2026-04-26 19:59 43.66039 0.59211 33173 ft 436 kts 223°
2026-04-26 20:00 43.61504 0.53650 33170 ft 436 kts 223°
2026-04-26 20:00 43.56963 0.48093 33172 ft 436 kts 223°
2026-04-26 20:01 43.52422 0.42545 33175 ft 436 kts 223°
2026-04-26 20:01 43.47871 0.37005 33179 ft 436 kts 222°
2026-04-26 20:02 43.43351 0.31527 33188 ft 435 kts 222°
2026-04-26 20:02 43.39546 0.26919 33195 ft 435 kts 222°
2026-04-26 20:03 43.34270 0.20542 33192 ft 435 kts 222°
2026-04-26 20:03 43.29729 0.15057 33201 ft 434 kts 222°
2026-04-26 20:04 43.25191 0.09581 33209 ft 434 kts 222°
2026-04-26 20:04 43.20647 0.04114 33200 ft 434 kts 222°
2026-04-26 20:05 43.16101 -0.01341 33195 ft 434 kts 221°
2026-04-26 20:05 43.11552 -0.06783 33194 ft 434 kts 221°
2026-04-26 20:06 43.07006 -0.12209 33199 ft 434 kts 221°
2026-04-26 20:06 43.02459 -0.17628 33205 ft 433 kts 221°
2026-04-26 20:07 42.97917 -0.23038 33203 ft 433 kts 221°
2026-04-26 20:07 42.93374 -0.28439 33205 ft 433 kts 221°
2026-04-26 20:08 42.88829 -0.33830 33196 ft 433 kts 221°
2026-04-26 20:08 42.84278 -0.39201 33196 ft 432 kts 221°
2026-04-26 20:09 42.79443 -0.44040 33193 ft 433 kts 208°
2026-04-26 20:09 42.73905 -0.47133 33179 ft 433 kts 201°
2026-04-26 20:10 42.68281 -0.50096 33171 ft 433 kts 201°
2026-04-26 20:10 42.62653 -0.53068 33173 ft 434 kts 201°
2026-04-26 20:11 42.57022 -0.56025 33174 ft 434 kts 201°
2026-04-26 20:12 42.48550 -0.60453 33169 ft 435 kts 201°
2026-04-26 20:12 42.42907 -0.63394 33141 ft 434 kts 201°
2026-04-26 20:13 42.37265 -0.66328 33137 ft 434 kts 201°
2026-04-26 20:13 42.31620 -0.69264 33134 ft 435 kts 201°
2026-04-26 20:14 42.26014 -0.72180 33125 ft 435 kts 201°
2026-04-26 20:14 42.20367 -0.75117 33129 ft 435 kts 201°
2026-04-26 20:15 42.14721 -0.78033 33118 ft 434 kts 201°
2026-04-26 20:15 42.09077 -0.80938 33114 ft 434 kts 201°
2026-04-26 20:16 42.03435 -0.83834 33114 ft 434 kts 201°
2026-04-26 20:16 41.97794 -0.86729 33111 ft 433 kts 201°
2026-04-26 20:17 41.92162 -0.89621 33106 ft 433 kts 201°
2026-04-26 20:17 41.86528 -0.92514 33098 ft 433 kts 201°
2026-04-26 20:18 41.80890 -0.95402 33106 ft 433 kts 201°
2026-04-26 20:18 41.75254 -0.98270 33103 ft 434 kts 201°
2026-04-26 20:19 41.69614 -1.01140 33098 ft 434 kts 201°
2026-04-26 20:19 41.64202 -1.04546 33097 ft 432 kts 215°
2026-04-26 20:20 41.59253 -1.09118 33099 ft 433 kts 216°
2026-04-26 20:20 41.54291 -1.13674 33099 ft 433 kts 215°
2026-04-26 20:21 41.49319 -1.18216 33101 ft 433 kts 215°
2026-04-26 20:21 41.44347 -1.22757 33110 ft 433 kts 215°
2026-04-26 20:22 41.39380 -1.27296 33121 ft 433 kts 215°
2026-04-26 20:22 41.34404 -1.31834 33123 ft 433 kts 215°
2026-04-26 20:23 41.29432 -1.36356 33131 ft 433 kts 215°
2026-04-26 20:23 41.24453 -1.40872 33145 ft 433 kts 215°
2026-04-26 20:24 41.19482 -1.45384 33142 ft 433 kts 215°
2026-04-26 20:24 41.14509 -1.49889 33150 ft 433 kts 215°
2026-04-26 20:25 41.09527 -1.54385 33146 ft 433 kts 215°
2026-04-26 20:25 41.04554 -1.58868 33153 ft 432 kts 215°
2026-04-26 20:26 40.99578 -1.63344 33154 ft 432 kts 215°
2026-04-26 20:26 40.94644 -1.67789 33161 ft 432 kts 215°
2026-04-26 20:27 40.89671 -1.72252 33168 ft 432 kts 215°
2026-04-26 20:27 40.84699 -1.76700 33168 ft 431 kts 215°
2026-04-26 20:28 40.79730 -1.81139 33171 ft 431 kts 215°
2026-04-26 20:28 40.74762 -1.85565 33167 ft 431 kts 215°
2026-04-26 20:29 40.69793 -1.89980 33172 ft 431 kts 215°
2026-04-26 20:29 40.64830 -1.94388 33165 ft 431 kts 215°
2026-04-26 20:30 40.59861 -1.98803 33155 ft 430 kts 215°
2026-04-26 20:30 40.54923 -2.03170 33155 ft 430 kts 214°
2026-04-26 20:31 40.49948 -2.07558 33158 ft 430 kts 214°
2026-04-26 20:31 40.44973 -2.11935 33163 ft 430 kts 215°
2026-04-26 20:32 40.40001 -2.16306 33154 ft 430 kts 214°
2026-04-26 20:32 40.35035 -2.20675 33158 ft 430 kts 215°
2026-04-26 20:33 40.30908 -2.24300 33158 ft 429 kts 214°
2026-04-26 20:33 40.25942 -2.28654 33160 ft 429 kts 215°
2026-04-26 20:34 40.20975 -2.32997 33135 ft 430 kts 215°
2026-04-26 20:34 40.16004 -2.37331 33144 ft 429 kts 214°
2026-04-26 20:35 40.11031 -2.41657 33144 ft 429 kts 214°
2026-04-26 20:35 40.06065 -2.45977 33144 ft 429 kts 214°
2026-04-26 20:36 40.01095 -2.50289 33144 ft 429 kts 215°
2026-04-26 20:36 39.96131 -2.54594 33147 ft 428 kts 214°
2026-04-26 20:37 39.91163 -2.58895 33152 ft 428 kts 214°
2026-04-26 20:37 39.86197 -2.63179 33145 ft 428 kts 215°
2026-04-26 20:38 39.81229 -2.67452 33146 ft 428 kts 214°
2026-04-26 20:38 39.76259 -2.71734 33138 ft 428 kts 214°
2026-04-26 20:39 39.71285 -2.76002 33134 ft 428 kts 214°
2026-04-26 20:39 39.66314 -2.80258 33137 ft 428 kts 214°
2026-04-26 20:40 39.61374 -2.84494 33137 ft 428 kts 214°
2026-04-26 20:40 39.56398 -2.88749 33139 ft 428 kts 214°
2026-04-26 20:41 39.51416 -2.92990 33126 ft 428 kts 214°
2026-04-26 20:41 39.46432 -2.97228 33123 ft 428 kts 215°
2026-04-26 20:42 39.41446 -3.01460 33125 ft 428 kts 213°
2026-04-26 20:42 39.36033 -3.04686 33124 ft 429 kts 202°
2026-04-26 20:43 39.30441 -3.07408 33106 ft 430 kts 202°
2026-04-26 20:43 39.24840 -3.10127 33112 ft 430 kts 201°
2026-04-26 20:44 39.19233 -3.12843 33113 ft 430 kts 201°
2026-04-26 20:44 39.13623 -3.15558 33115 ft 431 kts 201°
2026-04-26 20:45 39.08015 -3.18273 33119 ft 430 kts 201°
2026-04-26 20:45 39.02443 -3.20958 33111 ft 430 kts 201°
2026-04-26 20:46 38.96839 -3.23663 33110 ft 430 kts 201°
2026-04-26 20:46 38.91230 -3.26366 33110 ft 430 kts 201°
2026-04-26 20:47 38.85621 -3.29053 33112 ft 430 kts 201°
2026-04-26 20:47 38.80008 -3.31737 33106 ft 431 kts 201°
2026-04-26 20:48 38.74384 -3.34430 33111 ft 431 kts 201°
2026-04-26 20:48 38.68761 -3.37127 33104 ft 432 kts 201°
2026-04-26 20:49 38.63139 -3.39818 33108 ft 431 kts 201°
2026-04-26 20:49 38.57509 -3.42499 33104 ft 432 kts 201°
2026-04-26 20:50 38.51911 -3.45155 33096 ft 432 kts 201°
2026-04-26 20:50 38.46269 -3.47833 33097 ft 433 kts 201°
2026-04-26 20:51 38.40622 -3.50510 33091 ft 433 kts 201°
2026-04-26 20:51 38.34969 -3.53178 33091 ft 434 kts 201°
2026-04-26 20:52 38.29306 -3.55855 33086 ft 434 kts 201°
2026-04-26 20:52 38.23640 -3.58531 33090 ft 434 kts 201°
2026-04-26 20:53 38.18067 -3.61454 33082 ft 432 kts 211°
2026-04-26 20:53 38.13441 -3.66210 33076 ft 427 kts 231°
2026-04-26 20:54 38.09999 -3.72324 33066 ft 426 kts 237°
2026-04-26 20:54 38.06658 -3.78541 33052 ft 426 kts 237°
2026-04-26 20:54 38.04997 -3.81623 32786 ft 419 kts 237°
2026-04-26 20:55 38.03362 -3.84657 32515 ft 414 kts 238°
2026-04-26 20:55 38.01744 -3.87659 32255 ft 411 kts 238°
2026-04-26 20:55 38.00135 -3.90642 31998 ft 409 kts 238°
2026-04-26 20:55 37.98532 -3.93615 31744 ft 407 kts 237°
2026-04-26 20:56 37.96938 -3.96569 31489 ft 406 kts 237°
2026-04-26 20:56 37.95349 -3.99514 31242 ft 404 kts 237°
2026-04-26 20:56 37.93767 -4.02448 30995 ft 403 kts 237°
2026-04-26 20:56 37.92191 -4.05370 30748 ft 401 kts 237°
2026-04-26 20:57 37.90618 -4.08279 30508 ft 399 kts 237°
2026-04-26 20:57 37.89050 -4.11171 30272 ft 398 kts 237°
2026-04-26 20:57 37.87486 -4.14051 29998 ft 397 kts 237°
2026-04-26 20:57 37.85922 -4.16921 29714 ft 395 kts 237°
2026-04-26 20:58 37.84369 -4.19768 29409 ft 390 kts 237°
2026-04-26 20:58 37.82858 -4.22543 28974 ft 386 kts 237°
2026-04-26 20:58 37.81343 -4.25331 28558 ft 383 kts 237°
2026-04-26 20:58 37.79840 -4.28094 28124 ft 379 kts 237°
2026-04-26 20:59 37.78348 -4.30829 27706 ft 376 kts 237°
2026-04-26 20:59 37.76869 -4.33533 27289 ft 373 kts 237°
2026-04-26 20:59 37.75400 -4.36222 26871 ft 370 kts 237°
2026-04-26 20:59 37.73945 -4.38891 26443 ft 367 kts 237°
2026-04-26 21:00 37.72501 -4.41537 26025 ft 365 kts 236°
2026-04-26 21:00 37.71062 -4.44166 25583 ft 363 kts 236°
2026-04-26 21:00 37.69627 -4.46777 25133 ft 361 kts 235°
2026-04-26 21:00 37.67915 -4.49097 24249 ft 364 kts 217°
2026-04-26 21:01 37.65730 -4.50726 23312 ft 366 kts 208°
2026-04-26 21:01 37.63484 -4.52272 22271 ft 369 kts 208°
2026-04-26 21:01 37.61209 -4.53789 21271 ft 370 kts 207°
2026-04-26 21:01 37.58917 -4.55271 20304 ft 371 kts 207°
2026-04-26 21:02 37.56612 -4.56742 19354 ft 371 kts 207°
2026-04-26 21:02 37.54302 -4.58209 18435 ft 371 kts 206°
2026-04-26 21:02 37.52003 -4.59670 17425 ft 370 kts 206°
2026-04-26 21:02 37.49714 -4.61131 16455 ft 369 kts 206°
2026-04-26 21:03 37.47456 -4.62577 16094 ft 364 kts 207°
2026-04-26 21:03 37.45199 -4.64030 15840 ft 356 kts 206°
2026-04-26 21:03 37.43049 -4.65418 15604 ft 348 kts 206°
2026-04-26 21:03 37.40915 -4.66792 15360 ft 341 kts 206°
2026-04-26 21:04 37.38818 -4.68139 15039 ft 337 kts 206°
2026-04-26 21:04 37.36735 -4.69476 14649 ft 336 kts 207°
2026-04-26 21:04 37.34659 -4.70809 14253 ft 334 kts 207°
2026-04-26 21:04 37.32596 -4.72132 13903 ft 332 kts 207°
2026-04-26 21:05 37.30541 -4.73449 13426 ft 331 kts 206°
2026-04-26 21:05 37.28494 -4.74760 13026 ft 328 kts 207°
2026-04-26 21:05 37.26455 -4.76066 12561 ft 328 kts 206°
2026-04-26 21:05 37.24464 -4.77341 12471 ft 316 kts 206°
2026-04-26 21:06 37.22538 -4.78571 12347 ft 305 kts 206°
2026-04-26 21:06 37.20658 -4.79713 12216 ft 295 kts 199°
2026-04-26 21:06 37.18688 -4.80229 11977 ft 289 kts 181°
2026-04-26 21:06 37.16671 -4.80229 11547 ft 291 kts 178°
2026-04-26 21:07 37.14648 -4.80204 11157 ft 291 kts 178°
2026-04-26 21:07 37.12620 -4.80177 10783 ft 292 kts 177°
2026-04-26 21:07 37.10590 -4.80149 10388 ft 293 kts 177°
2026-04-26 21:07 37.08550 -4.80121 9995 ft 293 kts 178°
2026-04-26 21:08 37.06511 -4.80077 9561 ft 292 kts 174°
2026-04-26 21:08 37.04496 -4.79838 9181 ft 290 kts 172°
2026-04-26 21:08 37.02495 -4.79552 8803 ft 288 kts 171°
2026-04-26 21:08 37.00509 -4.79249 8415 ft 286 kts 171°
2026-04-26 21:09 36.98536 -4.78947 8039 ft 284 kts 171°
2026-04-26 21:09 36.96605 -4.78653 7663 ft 283 kts 171°
2026-04-26 21:09 36.94632 -4.78354 7283 ft 281 kts 170°
2026-04-26 21:09 36.92729 -4.78068 6919 ft 278 kts 170°
2026-04-26 21:10 36.90812 -4.77783 6551 ft 277 kts 170°
2026-04-26 21:10 36.88902 -4.77499 6169 ft 275 kts 169°
2026-04-26 21:10 36.87089 -4.76840 5740 ft 269 kts 149°
2026-04-26 21:10 36.85638 -4.75435 5390 ft 262 kts 131°
2026-04-26 21:11 36.84444 -4.73759 5043 ft 253 kts 129°
2026-04-26 21:11 36.83319 -4.72158 4694 ft 237 kts 130°
2026-04-26 21:11 36.82251 -4.70650 4359 ft 230 kts 130°
2026-04-26 21:11 36.81198 -4.69166 4048 ft 227 kts 130°
2026-04-26 21:12 36.80161 -4.67705 3742 ft 223 kts 130°
2026-04-26 21:12 36.79138 -4.66264 3422 ft 222 kts 130°
2026-04-26 21:12 36.78125 -4.64838 3113 ft 216 kts 131°
2026-04-26 21:12 36.77168 -4.63494 2808 ft 198 kts 131°
2026-04-26 21:13 36.76275 -4.62238 2555 ft 188 kts 131°
2026-04-26 21:13 36.75430 -4.61050 2289 ft 177 kts 131°
2026-04-26 21:13 36.74639 -4.59940 2036 ft 165 kts 131°
2026-04-26 21:13 36.73906 -4.58910 1825 ft 151 kts 131°
2026-04-26 21:14 36.73229 -4.57961 1596 ft 143 kts 131°
2026-04-26 21:14 36.72580 -4.57063 1392 ft 138 kts 130°
2026-04-26 21:14 36.71942 -4.56157 1175 ft 136 kts 129°
2026-04-26 21:14 36.71324 -4.55277 973 ft 138 kts 130°
2026-04-26 21:15 36.70684 -4.54384 817 ft 139 kts 131°
2026-04-26 21:15 36.70042 -4.53483 593 ft 139 kts 130°
2026-04-26 21:15 36.69401 -4.52582 406 ft 139 kts 130°
2026-04-26 21:15 36.68761 -4.51687 212 ft 138 kts 131°
2026-04-26 21:16 36.68138 -4.50806 55 ft 125 kts 131°
2026-04-26 21:16 36.67663 -4.50147 54 ft 78 kts 132°
2026-04-26 21:16 36.67418 -4.49805 49 ft 32 kts 131°
2026-04-26 21:16 36.67309 -4.49576 48 ft 26 kts 107°
2026-04-26 21:17 36.67313 -4.49417 43 ft 17 kts 27°
2026-04-26 21:17 36.67403 -4.49496 43 ft 16 kts 312°
2026-04-26 21:17 36.67472 -4.49587 42 ft 11 kts 319°
2026-04-26 21:17 36.67534 -4.49564 42 ft 9 kts 20°
2026-04-26 21:18 36.67581 -4.49598 42 ft 7 kts 314°
2026-04-26 21:18 36.67620 -4.49609 42 ft 6 kts 24°
2026-04-26 21:18 36.67653 -4.49598 42 ft 4 kts 348°
2026-04-26 21:18 36.67679 -4.49628 40 ft 5 kts 310°
2026-04-26 21:19 36.67700 -4.49658 42 ft 4 kts 311°
2026-04-26 21:19 36.67723 -4.49662 42 ft 5 kts 31°
2026-04-26 21:19 36.67753 -4.49626 42 ft 5 kts 41°
2026-04-26 21:19 36.67762 -4.49616 42 ft 0 kts 42°